KE0LFX Weather Reports


time (UTC)temp
F
wind
direction
speed
knots
gust
knots
rain 1hr
in
rain 24hr
in
rain mn
in
humidity
%
barometer
mb
20260906090831 70 174 0.0 0.0 0.00 0.00 0.00 97 1021.3
20260906090330 70 218 0.0 0.0 0.00 0.00 0.00 97 1021.3
20260906085824 70 193 0.0 0.9 0.00 0.00 0.00 97 1021.3
20260906085323 70 210 0.0 0.0 0.00 0.00 0.00 97 1021.4
20260906084818 70 189 0.0 0.9 0.00 0.00 0.00 97 1021.4
20260906084318 71 207 0.0 0.0 0.00 0.00 0.00 97 1021.5
20260906083807 71 175 0.0 0.0 0.00 0.00 0.00 97 1021.4
20260906083303 71 107 0.9 0.9 0.00 0.00 0.00 97 1021.4
20260906082757 71 193 0.0 0.9 0.00 0.00 0.00 97 1021.4
20260906082252 71 222 0.0 0.0 0.00 0.00 0.00 97 1021.3
20260906081748 71 217 0.0 0.0 0.00 0.00 0.00 97 1021.4
20260906081244 71 164 0.9 0.9 0.00 0.00 0.00 98 1021.6
20260906080740 71 210 0.0 0.0 0.00 0.00 0.00 98 1021.4
20260906080236 71 197 0.0 0.0 0.00 0.00 0.00 98 1021.3
20260906075730 71 222 0.0 0.0 0.00 0.00 0.00 98 1021.5
20260906075229 71 181 0.0 0.0 0.00 0.00 0.00 98 1021.7
20260906074725 71 97 0.0 0.0 0.00 0.00 0.00 97 1021.3
20260906074224 71 97 0.0 0.0 0.00 0.00 0.00 97 1021.7
20260906073724 71 213 0.0 0.0 0.00 0.00 0.00 97 1021.4
20260906073219 72 229 0.0 0.0 0.00 0.00 0.00 97 1021.6
20260906072715 72 97 0.0 0.9 0.00 0.00 0.00 97 1021.6
20260906072211 72 224 0.0 0.0 0.00 0.00 0.00 96 1021.8
20260906071706 72 185 0.0 0.0 0.00 0.00 0.00 96 1021.7
20260906071201 72 341 0.0 0.0 0.00 0.00 0.00 96 1021.8
20260906070658 72 232 0.0 0.0 0.00 0.00 0.00 96 1021.5
20260906070153 72 222 0.0 0.0 0.00 0.00 0.00 96 1021.9
20260906065652 72 200 0.0 0.0 0.00 0.00 0.00 96 1021.9
20260906065148 72 182 0.0 0.0 0.00 0.00 0.00 96 1021.9
20260906064643 73 215 0.0 0.0 0.00 0.00 0.00 95 1021.6
20260906064139 73 220 0.0 0.0 0.00 0.00 0.00 95 1021.8
20260906063639 73 192 0.0 0.0 0.00 0.00 0.00 95 1022.0
20260906063135 73 224 0.0 0.0 0.00 0.00 0.00 95 1021.7
20260906062630 73 221 0.0 0.0 0.00 0.00 0.00 95 1022.0
20260906062129 73 223 0.0 0.0 0.00 0.00 0.00 95 1021.9
20260906061625 73 231 0.0 0.0 0.00 0.00 0.00 95 1022.0
20260906061125 73 226 0.0 0.0 0.00 0.00 0.00 95 1021.9
20260906060622 73 215 0.0 0.0 0.00 0.00 0.00 94 1021.7
20260906060119 73 216 0.0 0.0 0.00 0.00 0.00 94 1021.8
20260906055614 73 225 0.0 0.0 0.00 0.00 0.00 94 1021.7
20260906055109 73 143 0.0 0.0 0.00 0.00 0.00 94 1021.8
20260906054604 73 235 0.0 0.0 0.00 0.00 0.00 94 1021.6
20260906054059 74 221 0.0 0.0 0.00 0.00 0.00 93 1021.5
20260906053556 74 234 0.0 0.0 0.00 0.00 0.00 93 1021.4
20260906053051 74 215 0.0 0.0 0.00 0.00 0.00 93 1021.6
20260906052546 74 60 0.0 0.9 0.00 0.00 0.00 93 1021.5
20260906052043 74 136 0.0 0.9 0.00 0.00 0.00 93 1021.5
20260906051539 74 58 0.9 1.7 0.00 0.00 0.00 93 1021.6
20260906051034 74 106 0.9 0.9 0.00 0.00 0.00 93 1021.3
20260906050529 74 328 0.0 0.9 0.00 0.00 0.00 93 1021.5
20260906050024 74 272 0.0 0.0 0.00 0.00 0.00 93 1021.4
20260906045522 74 199 0.0 0.0 0.00 0.00 0.00 93 1021.4
20260906045018 74 120 0.0 0.9 0.00 0.00 0.00 93 1021.4
20260906044513 75 283 0.0 0.0 0.00 0.00 0.00 93 1021.5
20260906044009 75 164 0.0 0.9 0.00 0.00 0.00 92 1021.4
20260906043504 75 66 0.9 0.9 0.00 0.00 0.00 92 1021.4
20260906042955 75 108 0.0 0.0 0.00 0.00 0.00 92 1021.6
20260906042453 75 344 0.0 0.9 0.00 0.00 0.00 92 1021.4
20260906041947 75 357 0.0 0.9 0.00 0.00 0.00 92 1021.4
20260906041444 75 246 0.0 0.0 0.00 0.00 0.00 92 1021.3
20260906040943 75 238 0.0 0.0 0.00 0.00 0.00 92 1021.2
20260906040438 75 243 0.0 0.0 0.00 0.00 0.00 92 1021.1
20260906035934 75 237 0.0 0.0 0.00 0.00 0.00 92 1021.0
20260906035429 75 240 0.0 0.0 0.00 0.00 0.00 92 1021.2
20260906034925 75 260 0.0 0.0 0.00 0.00 0.00 92 1021.2
20260906034425 75 95 0.9 0.9 0.00 0.00 0.00 92 1021.3
20260906033921 75 62 0.0 0.0 0.00 0.00 0.00 92 1021.1
20260906033420 75 79 0.0 0.9 0.00 0.00 0.00 92 1020.7
20260906032916 75 216 0.0 0.0 0.00 0.00 0.00 92 1021.0
20260906032413 75 342 0.0 0.0 0.00 0.00 0.00 92 1020.9
20260906031907 75 125 0.0 0.0 0.00 0.00 0.00 92 1020.9
20260906031402 75 124 0.0 0.9 0.00 0.00 0.00 92 1020.9
20260906030857 75 178 0.0 0.9 0.00 0.00 0.00 92 1020.9
20260906030352 75 74 0.0 0.9 0.00 0.00 0.00 92 1021.1
20260906025846 75 76 1.7 2.6 0.00 0.00 0.00 92 1021.1
20260906025340 76 162 0.9 1.7 0.00 0.00 0.00 92 1021.0
20260906024839 76 45 0.9 1.7 0.00 0.00 0.00 92 1020.8
20260906024339 76 222 0.0 0.0 0.00 0.00 0.00 92 1020.8
20260906023834 76 175 0.0 0.0 0.00 0.00 0.00 92 1020.5
20260906023330 76 162 0.0 0.0 0.00 0.00 0.00 92 1020.6
20260906022825 76 243 0.0 0.0 0.00 0.00 0.00 92 1020.6
20260906022320 76 87 0.9 1.7 0.00 0.00 0.00 92 1020.2
20260906021816 77 80 0.0 0.9 0.00 0.00 0.00 92 1020.7
20260906021315 77 219 0.0 0.0 0.00 0.00 0.00 91 1020.3
20260906020810 77 94 0.9 0.9 0.00 0.00 0.00 91 1020.3
20260906020309 77 219 0.0 0.0 0.00 0.00 0.00 91 1020.0
20260906015804 77 228 0.0 0.0 0.00 0.00 0.00 91 1020.3
20260906015305 77 235 0.0 0.0 0.00 0.00 0.00 91 1019.9
20260906014757 77 222 0.0 0.0 0.00 0.00 0.00 91 1019.9
20260906014253 77 232 0.0 0.0 0.00 0.00 0.00 90 1019.9
20260906013749 77 227 0.0 0.0 0.00 0.00 0.00 90 1019.5
20260906013249 78 218 0.0 0.0 0.00 0.00 0.00 90 1019.8
20260906012744 78 266 0.0 0.0 0.00 0.00 0.00 90 1019.9
20260906012239 78 279 0.0 0.0 0.00 0.00 0.00 89 1019.6
20260906011735 78 168 0.0 0.0 0.00 0.00 0.00 89 1019.8
20260906011235 78 224 0.0 0.0 0.00 0.00 0.00 89 1019.6
20260906010730 78 205 0.0 0.0 0.00 0.00 0.00 88 1019.5
20260906010227 78 224 0.0 0.0 0.00 0.00 0.00 88 1019.5
20260906005721 78 235 0.0 0.0 0.00 0.00 0.00 88 1019.6
20260906005220 78 231 0.0 0.0 0.00 0.00 0.00 88 1019.5
20260906004719 78 318 0.0 0.0 0.00 0.00 0.00 88 1019.8
20260906004214 79 237 0.0 0.0 0.00 0.00 0.00 87 1019.6
20260906003709 79 232 0.0 0.0 0.00 0.00 0.00 87 1019.8
20260906003205 79 236 0.0 0.0 0.00 0.00 0.00 87 1019.5
20260906002659 79 232 0.0 0.0 0.00 0.00 0.00 87 1019.1
20260906002155 79 243 0.0 0.0 0.00 0.00 0.00 86 1019.4
20260906001650 80 207 0.0 0.0 0.00 0.00 0.00 86 1019.5
20260906001149 80 236 0.0 0.0 0.00 0.00 0.00 86 1019.5
20260906000645 80 215 0.0 0.0 0.00 0.00 0.00 85 1019.5
20260906000140 80 171 0.0 0.0 0.00 0.00 0.00 85 1019.4
20260905235639 80 133 0.9 0.9 0.00 0.00 0.00 85 1019.4
20260905235134 81 68 1.7 1.7 0.00 0.00 0.00 85 1019.4
20260905234629 81 236 0.0 0.0 0.00 0.00 0.00 85 1019.3
20260905234126 81 242 0.0 0.0 0.00 0.00 0.00 84 1019.3
20260905233626 81 197 0.0 0.0 0.00 0.00 0.00 84 1019.2
20260905233120 82 298 0.0 0.0 0.00 0.00 0.00 83 1019.1
20260905232615 82 222 0.0 0.0 0.00 0.00 0.00 83 1019.1
20260905232111 82 66 2.6 5.2 0.00 0.00 0.00 83 1019.1
20260905231606 83 81 0.9 0.9 0.00 0.00 0.00 82 1019.3
20260905231102 84 82 0.9 2.6 0.00 0.00 0.00 82 1019.0
20260905230602 84 186 0.0 0.9 0.00 0.00 0.00 81 1019.2
20260905225555 85 134 0.0 0.0 0.00 0.00 0.00 81 1019.2
20260905225050 86 242 0.0 0.9 0.00 0.00 0.00 81 1019.0
20260905224549 86 305 0.0 0.9 0.00 0.00 0.00 81 1019.0
20260905224049 85 65 1.7 1.7 0.00 0.00 0.00 82 1018.9
20260905223547 85 50 2.6 4.3 0.00 0.00 0.00 81 1018.9
20260905223042 85 68 1.7 2.6 0.00 0.00 0.00 81 1018.9
20260905222543 86 7 1.7 2.6 0.00 0.00 0.00 81 1018.8
20260905222038 86 40 3.5 5.2 0.00 0.00 0.00 81 1018.7
20260905221534 86 60 2.6 4.3 0.00 0.00 0.00 81 1018.6
20260905221030 86 27 0.9 1.7 0.00 0.00 0.00 81 1018.5
20260905220526 87 35 3.5 5.2 0.00 0.00 0.00 80 1018.7
20260905220021 87 92 1.7 1.7 0.00 0.00 0.00 80 1018.7
20260905215515 87 98 2.6 4.3 0.00 0.00 0.00 79 1018.6
20260905215012 88 58 0.9 0.9 0.00 0.00 0.00 79 1018.4
20260905214508 89 39 0.9 1.7 0.00 0.00 0.00 78 1018.8
20260905214008 89 309 0.9 0.9 0.00 0.00 0.00 77 1018.8
20260905213503 89 72 0.9 1.7 0.00 0.00 0.00 76 1018.7
20260905213004 88 23 4.3 5.2 0.00 0.00 0.00 76 1018.7
20260905212459 89 93 3.5 5.2 0.00 0.00 0.00 76 1018.8
20260905211958 89 35 0.9 1.7 0.00 0.00 0.00 76 1018.9
20260905211454 89 73 0.9 0.9 0.00 0.00 0.00 77 1019.1
20260905210949 89 45 0.9 0.9 0.00 0.00 0.00 77 1018.8
20260905210444 88 256 0.0 0.0 0.00 0.00 0.00 78 1018.9
20260905205944 88 79 0.0 0.0 0.00 0.00 0.00 78 1019.0
20260905205439 90 50 0.9 0.9 0.00 0.00 0.00 75 1019.0
20260905204937 89 287 0.9 0.9 0.00 0.00 0.00 77 1018.8
20260905204433 89 196 0.0 0.9 0.00 0.00 0.00 76 1018.9
20260905203932 90 289 0.0 0.9 0.00 0.00 0.00 76 1019.0
20260905203428 90 21 2.6 2.6 0.00 0.00 0.00 72 1018.8
20260905202923 90 77 0.9 1.7 0.00 0.00 0.00 75 1019.2
20260905202419 89 54 4.3 5.2 0.00 0.00 0.00 75 1019.2
20260905201914 90 88 2.6 4.3 0.00 0.00 0.00 73 1019.1
20260905201409 90 99 0.9 0.9 0.00 0.00 0.00 75 1019.1
20260905200904 89 0 0.9 1.7 0.00 0.00 0.00 74 1019.0
20260905200400 89 202 2.6 4.3 0.00 0.00 0.00 75 1018.9
20260905195857 90 82 2.6 4.3 0.00 0.00 0.00 76 1019.0
20260905195353 89 136 0.9 1.7 0.00 0.00 0.00 76 1019.1
20260905194849 90 79 0.9 1.7 0.00 0.00 0.00 76 1019.1
20260905194348 89 21 0.9 1.7 0.00 0.00 0.00 78 1019.2
20260905193847 88 72 2.6 4.3 0.00 0.00 0.00 78 1019.1
20260905193342 88 27 2.6 5.2 0.00 0.00 0.00 79 1019.5
20260905192838 89 342 0.9 0.9 0.00 0.00 0.00 79 1019.8
20260905192334 88 34 2.6 2.6 0.00 0.00 0.00 79 1019.9
20260905191833 88 40 3.5 4.3 0.00 0.00 0.00 79 1019.6
20260905191332 89 73 0.9 0.9 0.00 0.00 0.00 78 1019.9
20260905190825 90 343 1.7 1.7 0.00 0.00 0.00 76 1019.8
20260905190324 89 23 0.0 0.9 0.00 0.00 0.00 78 1019.5
20260905185823 89 117 0.0 0.0 0.00 0.00 0.00 79 1019.9
20260905185319 89 42 2.6 2.6 0.00 0.00 0.00 77 1019.8
20260905184812 91 318 2.6 4.3 0.00 0.00 0.00 76 1019.8
20260905184311 91 243 0.0 0.0 0.00 0.00 0.00 75 1019.8
20260905183810 90 230 0.0 0.0 0.00 0.00 0.00 76 1020.2
20260905183306 90 35 0.9 1.7 0.00 0.00 0.00 77 1020.0
20260905182800 88 320 1.7 1.7 0.00 0.00 0.00 78 1020.1
20260905182300 89 51 4.3 5.2 0.00 0.00 0.00 77 1020.0
20260905181755 89 287 0.9 0.9 0.00 0.00 0.00 77 1019.9
20260905181255 89 173 0.9 0.9 0.00 0.00 0.00 79 1020.0
20260905180749 89 35 0.9 1.7 0.00 0.00 0.00 78 1020.2
20260905180244 88 343 0.0 0.9 0.00 0.00 0.00 79 1020.0
20260905175744 88 83 0.9 0.9 0.00 0.00 0.00 80 1020.0
20260905175239 88 241 0.0 0.0 0.00 0.00 0.00 80 1020.0
20260905174734 88 307 1.7 2.6 0.00 0.00 0.00 79 1019.8
20260905174230 87 354 1.7 1.7 0.00 0.00 0.00 80 1019.9
20260905173726 88 344 0.9 1.7 0.00 0.00 0.00 80 1019.6
20260905173221 88 91 0.9 2.6 0.00 0.00 0.00 79 1019.8
20260905172721 87 275 0.0 0.9 0.00 0.00 0.00 80 1019.8
20260905172215 86 77 2.6 2.6 0.00 0.00 0.00 81 1020.0
20260905171711 87 78 0.0 0.0 0.00 0.00 0.00 80 1020.1
20260905171207 86 264 0.0 0.9 0.00 0.00 0.00 81 1020.0
20260905170704 86 205 0.0 0.0 0.00 0.00 0.00 81 1020.0
20260905170203 87 316 0.0 0.9 0.00 0.00 0.00 81 1020.1
20260905165658 87 281 0.9 0.9 0.00 0.00 0.00 80 1020.3
20260905165153 87 64 0.0 0.9 0.00 0.00 0.00 79 1020.4
20260905164648 86 16 2.6 4.3 0.00 0.00 0.00 79 1020.4
20260905164148 86 356 0.0 0.9 0.00 0.00 0.00 79 1020.2
20260905163643 86 291 0.0 0.0 0.00 0.00 0.00 79 1020.3
20260905163140 86 350 0.0 0.0 0.00 0.00 0.00 79 1020.4
20260905162636 86 286 0.9 0.9 0.00 0.00 0.00 79 1020.4
20260905162135 86 118 0.0 0.9 0.00 0.00 0.00 79 1020.4
20260905161634 86 319 1.7 2.6 0.00 0.00 0.00 79 1020.4
20260905161132 85 5 2.6 2.6 0.00 0.00 0.00 79 1020.4
20260905160627 85 76 2.6 4.3 0.00 0.00 0.00 80 1020.1
20260905160120 85 28 0.9 1.7 0.00 0.00 0.00 81 1020.1
20260905155615 85 317 2.6 2.6 0.00 0.00 0.00 81 1020.2
20260905155114 85 96 0.0 0.9 0.00 0.00 0.00 82 1020.3
20260905154609 86 60 1.7 2.6 0.00 0.00 0.00 80 1020.1
20260905154104 86 118 0.0 0.0 0.00 0.00 0.00 82 1020.1
20260905153600 85 267 0.0 0.0 0.00 0.00 0.00 82 1020.1
20260905153100 85 292 1.7 1.7 0.00 0.00 0.00 83 1020.0
20260905152555 84 312 0.0 0.0 0.00 0.00 0.00 83 1019.8
20260905152050 84 31 3.5 5.2 0.00 0.00 0.00 84 1020.0
20260905151545 84 30 2.6 2.6 0.00 0.00 0.00 84 1019.8
20260905151040 83 63 2.6 4.3 0.00 0.00 0.00 84 1019.6
20260905150535 83 76 1.7 2.6 0.00 0.00 0.00 84 1019.5
20260905150033 83 71 0.9 2.6 0.00 0.00 0.00 85 1019.6
20260905145527 82 58 0.9 1.7 0.00 0.00 0.00 86 1019.5
20260905145021 82 0 0.0 0.9 0.00 0.00 0.00 86 1019.4
20260905144516 83 77 2.6 2.6 0.00 0.00 0.00 86 1019.4
20260905144015 82 7 2.6 4.3 0.00 0.00 0.00 87 1019.5
20260905143514 82 52 1.7 1.7 0.00 0.00 0.00 88 1019.6
20260905143010 83 41 2.6 4.3 0.00 0.00 0.00 88 1019.8
20260905142508 83 336 1.7 2.6 0.00 0.00 0.00 87 1019.5
20260905142004 83 6 0.9 0.9 0.00 0.00 0.00 88 1019.5
20260905141503 82 305 0.0 0.9 0.00 0.00 0.00 89 1019.3
20260905141000 82 98 0.9 0.9 0.00 0.00 0.00 89 1019.2
20260905140454 82 310 0.0 0.0 0.00 0.00 0.00 90 1019.1
20260905135953 81 292 0.9 1.7 0.00 0.00 0.00 90 1019.2
20260905135449 81 5 1.7 1.7 0.00 0.00 0.00 90 1019.1
20260905134944 81 279 0.9 0.9 0.00 0.00 0.00 90 1019.1
20260905134443 81 352 0.9 0.9 0.00 0.00 0.00 91 1019.2
20260905133943 80 278 0.0 0.0 0.00 0.00 0.00 92 1019.1
20260905133437 80 343 0.0 0.9 0.00 0.00 0.00 93 1018.9
20260905132932 79 279 0.0 0.0 0.00 0.00 0.00 94 1018.8
20260905132427 78 317 0.0 0.0 0.00 0.00 0.00 94 1018.9
20260905131921 78 53 1.7 1.7 0.00 0.00 0.00 95 1018.8
20260905131417 77 266 0.0 0.0 0.00 0.00 0.00 96 1018.6
20260905130912 77 311 0.9 0.9 0.00 0.00 0.00 96 1018.6
20260905130411 77 306 0.0 0.0 0.00 0.00 0.00 97 1018.7
20260905125907 77 266 0.0 0.0 0.00 0.00 0.00 97 1018.5
20260905125407 77 23 1.7 1.7 0.00 0.00 0.00 97 1018.8
20260905124902 77 80 0.9 0.9 0.00 0.00 0.00 97 1018.6
20260905124359 77 35 0.9 0.9 0.00 0.00 0.00 97 1018.6
20260905123858 77 88 0.9 0.9 0.00 0.00 0.00 97 1018.4
20260905123355 77 335 0.0 0.9 0.00 0.00 0.00 97 1018.4
20260905122850 77 339 0.0 0.9 0.00 0.00 0.00 97 1018.6
20260905122349 77 261 0.0 0.0 0.00 0.00 0.00 98 1018.3
20260905121845 76 318 0.0 0.0 0.00 0.00 0.00 98 1018.4
20260905121341 76 283 0.0 0.0 0.00 0.00 0.00 98 1018.2
20260905120839 76 277 0.0 0.0 0.00 0.00 0.00 98 1018.4
20260905120334 75 307 0.0 0.0 0.00 0.00 0.00 98 1018.2
20260905115830 75 275 0.0 0.0 0.00 0.00 0.00 99 1018.0
20260905115329 75 262 0.0 0.0 0.00 0.00 0.00 99 1017.9
20260905114829 75 262 0.0 0.0 0.00 0.00 0.00 98 1017.9
20260905114328 75 262 0.0 0.0 0.00 0.00 0.00 98 1017.7
20260905113822 76 263 0.0 0.0 0.00 0.00 0.00 98 1017.8
20260905113318 76 266 0.0 0.0 0.00 0.00 0.00 98 1017.8
20260905112813 76 268 0.0 0.0 0.00 0.00 0.00 98 1017.9
20260905112308 76 264 0.0 0.0 0.00 0.00 0.00 98 1018.1
20260905111803 76 267 0.0 0.0 0.00 0.00 0.00 98 1017.8
20260905111257 76 264 0.0 0.0 0.00 0.00 0.00 98 1017.6
20260905110756 76 263 0.0 0.0 0.00 0.00 0.00 98 1017.6
20260905110250 76 246 0.0 0.0 0.00 0.00 0.00 98 1017.7
20260905105746 76 254 0.0 0.0 0.00 0.00 0.00 98 1017.4
20260905105245 76 262 0.0 0.0 0.00 0.00 0.00 98 1017.4
20260905104740 76 263 0.0 0.0 0.00 0.00 0.00 98 1017.5
20260905104236 76 241 0.0 0.0 0.00 0.00 0.00 98 1017.5
20260905103736 76 241 0.0 0.0 0.00 0.00 0.00 98 1017.5
20260905103232 76 241 0.0 0.0 0.00 0.00 0.00 98 1017.4
20260905102727 76 241 0.0 0.0 0.00 0.00 0.00 98 1017.4
20260905102224 76 241 0.0 0.0 0.00 0.00 0.00 98 1017.6
20260905101723 76 241 0.0 0.0 0.00 0.00 0.00 99 1017.5
20260905101221 76 241 0.0 0.0 0.00 0.00 0.00 98 1017.4
20260905100718 76 241 0.0 0.0 0.00 0.00 0.00 99 1017.4
20260905100212 76 241 0.0 0.0 0.00 0.00 0.00 99 1017.5
20260905095712 76 241 0.0 0.0 0.00 0.00 0.00 98 1017.8
20260905095206 76 241 0.0 0.0 0.00 0.00 0.00 98 1017.5
20260905094701 76 241 0.0 0.0 0.00 0.00 0.00 98 1017.7
20260905094201 76 241 0.0 0.0 0.00 0.00 0.00 98 1017.5
20260905093655 76 237 0.0 0.0 0.00 0.00 0.00 98 1017.6
20260905093152 76 236 0.0 0.0 0.00 0.00 0.00 98 1017.7
20260905092652 76 257 0.0 0.0 0.00 0.00 0.00 98 1017.7
20260905092148 76 257 0.0 0.0 0.00 0.00 0.00 98 1017.6
20260905091642 76 257 0.0 0.0 0.00 0.00 0.00 98 1017.9